Regional Weather Roundup
Issued by NWS

Home | Current Version | Previous Version | Graphics & Text | Print | Product List | Glossary Off
Versions: 1 2 3 4 5 6 7 8 9 10 11 12 13 14 15 16 17 18 19 20 21 22 23 24 25 26 27 28 29 30 31 32 33 34 35 36 37 38 39 40 41 42 43 44 45 46 47 48 49 50

207
ASUS43 KMPX 270101
RWRMN
WEATHER ROUNDUP FOR MINNESOTA
NATIONAL WEATHER SERVICE TWIN CITIES/CHANHASSEN MN
800 PM CDT TUE JUL 26 2016


NOTE: "FAIR" INDICATES FEW OR NO CLOUDS BELOW 12,000 FEET WITH NO
SIGNIFICANT WEATHER AND/OR OBSTRUCTIONS TO VISIBILITY. N/A MEANS
CURRENT SKY AND/OR WEATHER CONDITIONS ARE NOT AVAILABLE.

MNZ060>063-068>070-270200-
   Twin Cities Metro

CITY           SKY/WX    TMP DP  RH WIND       PRES   REMARKS
TWIN CITIES    CLOUDY    86  66  51 SW12      29.95F
ST PAUL        CLOUDY    83  68  60 SW8       29.95F
CRYSTAL        CLOUDY    84  66  54 SW8       29.94S
BLAINE         MOCLDY    84  66  54 SW8       29.95F
LAKEVILLE      CLEAR     81  70  69 S3        29.97F
EDEN PRAIRIE   CLOUDY    84  68  58 SW8       29.95F
LAKEVILLE      CLEAR     81  70  69 S3        29.97F
SOUTH ST PAUL  PTCLDY    83  67  56 SW6       29.96S
LAKE ELMO      FAIR      81  68  65 SW7       29.97F
$$
MNZ001>005-007-008-013>017-022>024-027-028-270200-
   Northwest Minnesota

CITY           SKY/WX    TMP DP  RH WIND       PRES   REMARKS
HALLOCK        CLOUDY    73  61  64 N8        29.98S
ROSEAU         PTCLDY    73  64  73 N6        29.99S
WARROAD        PTCLDY    75  64  69 CALM      29.99S
THIEF RVR FALL PTCLDY    76  65  68 N8        29.99R
CROOKSTON      CLOUDY    79  66  65 NE6       29.97R
FOSSTON        CLOUDY    75  66  73 CALM      29.97R
DETROIT LAKES  CLOUDY    79  70  73 CALM      29.98R
MOORHEAD       LGT RAIN  70  66  88 CALM      29.95R
PARK RAPIDS    CLOUDY    78  69  73 S5        29.95F
MAHNOMEN       CLOUDY    76  67  72 CALM      29.96R
$$
MNZ006-009>011-018-025>026-270200-
   North Central Minnesota

CITY           SKY/WX    TMP DP  RH WIND       PRES   REMARKS
BAUDETTE       CLOUDY    75  62  64 N3        29.97F
FLAG ISLAND    CLOUDY    75  54  46 N14       29.98S
INTL FALLS     CLEAR     76  56  49 N8        29.96F
WASKISH        CLOUDY    72  64  78 NE3       29.96S
BIG FORK       PTCLDY    77  66  69 NE3       29.96F
LONGVILLE      CLOUDY    73  70  88 CALM      29.96S
GRAND RAPIDS   CLOUDY    75  64  68 N3        29.99S
CRANE LAKE     CLEAR     77  63  61 N1        29.97S
ORR            CLOUDY    72  66  83 CALM      29.95R
COOK           CLOUDY    73  64  73 CALM      29.97S
WALKER         FAIR      75  69  83 CALM      29.96R
$$
MNZ012-019>021-037-270200-
   Northeast Minnesota

CITY           SKY/WX    TMP DP  RH WIND       PRES   REMARKS
DULUTH         CLOUDY    77  69  76 NW3       29.98R
ELY            CLEAR     77  61  57 NW5       29.96S
HIBBING        LGT RAIN  72  67  84 S6        29.96S
EVELETH        CLOUDY    74  66  75 CALM      29.98R
DULUTH HARBOR  CLOUDY    81  72  74 SW8       29.94R
TWO HARBORS    CLEAR     79  72  78 CALM      29.93R
SILVER BAY     CLEAR     77  70  78 CALM      29.92S
GRAND MARAIS     N/A     65  62  90 W5        29.89S
G MARAIS ARPRT CLEAR     72  57  60 CALM      29.97S
$$
MNZ029>031-032-039>041-046>048-054>057-064-270200-
   West Central Minnesota

CITY           SKY/WX    TMP DP  RH WIND       PRES   REMARKS
FERGUS FALLS   PTCLDY    73  66  78 NW6       29.97R
WHEATON        CLOUDY    77  68  73 W3        29.98R
MORRIS         CLOUDY    79  70  73 W3        29.95S
ALEXANDRIA     MOCLDY    71  63  75 SE3       29.98R
ELBOW LAKE     FAIR      74  69  83 NW5       29.97R
WADENA         PTCLDY    73  64  73 CALM      29.95F
GLENWOOD       MOCLDY    77  72  83 SW5       29.97S
APPLETON       MOCLDY    79  66  65 NW5       29.95S
BENSON         CLOUDY    75  68  78 NW3       29.95S
ORTONVILLE     MOCLDY    77  66  69 CALM      29.97S
MADISON        MOCLDY    75  66  73 CALM      29.97R
WILLMAR        FAIR      81  68  65 NW3       29.97R
$$
MNZ033>034-036-042>043-049>051-058-059-270200-
   Central Minnesota

CITY           SKY/WX    TMP DP  RH WIND       PRES   REMARKS
ST CLOUD       CLOUDY    74  64  71 VRB5      29.97S
SAUK CENTRE    FAIR      72  65  78 CALM      29.95F
PAYNESVILLE    MOCLDY    74  65  74 NE3       29.96S
AITKIN         MIX PCPN  73  63  68 S9        29.99R
PINE RIVER     CLOUDY    72  64  78 S3        30.00R
BRAINERD       CLOUDY    71  64  78 SE5       29.97F
STAPLES        CLOUDY    73  61  64 N3        29.96R
LONG PRAIRIE   FAIR      68  64  88 CALM      29.95F
LITTLE FALLS   CLOUDY    66  63  88 CALM      29.94F
LITCHFIELD     CLEAR     81  72  74 CALM      29.96F
BUFFALO        CLOUDY    83  68  59 S5        29.97S
MAPLE LAKE     CLOUDY    81  73  76 CALM      29.97S
HUTCHINSON     CLOUDY    80  73  79 S3        29.97F
$$
MNZ037-044-045-052-053-270200-
   East Central Minnesota

CITY           SKY/WX    TMP DP  RH WIND       PRES   REMARKS
PRINCETON      CLOUDY    75  63  64 NW9       29.98F
MORA           CLOUDY    64  61  88 N5        30.00F
CAMBRIDGE      CLOUDY    81  64  57 NW15G23   29.96S
RUSH CITY      CLOUDY    76  62  62 NW13G29   29.98R
MOOSE LAKE     CLOUDY    73  68  83 CALM      29.96S
HINCKLEY       HVY RAIN  66  64  94 N12G23    29.98R
CLOQUET        CLOUDY    75  66  73 W3        29.98R
MCGREGOR       CLOUDY    75  70  83 S10G17    29.99R
$$
MNZ071>073-080-081-089-090-097-098-270200-
   Southwest Minnesota

CITY           SKY/WX    TMP DP  RH WIND       PRES   REMARKS
MONTEVIDEO     PTCLDY    81  64  57 CALM      29.97S
GRANITE FALLS  PTCLDY    84  71  64 CALM      29.97R
CANBY          PTCLDY    76  70  82 N6        29.97R
MARSHALL       CLOUDY    82  71  69 S7        29.96S
REDWOOD FALLS  CLOUDY    82  69  64 S8        29.94F
OLIVIA         CLOUDY    79  70  73 S3        29.95S
PIPESTONE      CLOUDY    79  68  69 S8        29.98F
WINDOM         CLOUDY    81  66  61 S8        29.98F
WORTHINGTON    MOCLDY    79  69  71 S9        29.99F
JACKSON        PTCLDY    79  64  61 S9        30.00F
TRACY          CLOUDY    82  70  66 S8        29.97F
SLAYTON        PTCLDY    78  70  77 S5        30.00F
$$
MNZ065>067-074>077-082>085-091>093-270200-
   South Central Minnesota

CITY           SKY/WX    TMP DP  RH WIND       PRES   REMARKS
MANKATO        PTCLDY    81  66  61 S6        29.98F
NEW ULM        PTCLDY    81  72  74 S6        29.96F
ST JAMES       PTCLDY    75  66  73 SE6       29.98F
FAIRMONT       CLEAR     79  66  65 S7        29.99F
GLENCOE        CLEAR     82  73  76 S3        29.96S
FARIBAULT      CLEAR     81  70  69 S3        29.99F
OWATONNA       CLEAR     79  70  73 SW3       30.00F
WASECA         CLEAR     77  70  78 S3        30.01F
ALBERT LEA     CLEAR     81  68  65 CALM      30.01F
$$
MNZ078>079-086>088-094>096-270200-
   Southeast Minnesota

CITY           SKY/WX    TMP DP  RH WIND       PRES   REMARKS
ROCHESTER      CLEAR     78  71  79 SW6       30.02F
RED WING       CLEAR     84  66  54 W6        29.95F
STANTON        CLEAR     82  70  65 S3        29.96F
DODGE CENTER   CLEAR     81  70  69 SW6       30.01F
WINONA         CLEAR     81  68  65 CALM      29.97F
AUSTIN         CLEAR     81  70  69 S3        30.01F
PRESTON        CLEAR     79  68  68 SW3       30.03F
$$
ABBREVIATIONS USED IN REMARKS
   TC - TEMPERATURES IN CELSIUS
  WCI - WIND CHILL INDEX
   HX - HEAT INDEX
  VSB - VISIBILITY
$$




USA.gov is the U.S. government's official web portal to all federal, state and local government web resources and services.